This demonstration page uses our WeatherBlox Daily Observations layout. Learn more.

Left ArrowRight Arrow

39.08367, -84.50855

Hourly Observations for April 7, 2020

Temp ( °F °C ) Dew Point ( °F °C ) Humidity (%) Winds ( mph kmh ) Pressure ( in mb ) Visibility ( mi km ) Precip ( " mm )
12:53 am 00:53 Cloudy 52 11.1 51 10.6 97 97 Calm 30.00 1016 10 16 0.00 0.00
1:53 am 01:53 Partly Cloudy 53 11.7 51 10.6 93 93 WSW 3 6 29.99 1016 10 16 0.00 0.00
2:53 am 02:53 Partly Cloudy with Mist and Fog 51 10.6 50 10 96 96 Calm 29.97 1015 6 10 0.00 0.00
3:24 am 03:24 Mostly Clear with Mist and Fog 50 10 50 10 100 100 Calm 29.97 1015 1 1 0.00 0.00
3:53 am 03:53 Mostly Clear with Mist and Fog 49 9.4 48 8.9 97 97 Calm 29.95 1014 1 2 0.00 0.00
4:10 am 04:10 Mostly Cloudy with Mist and Fog 50 10 50 10 100 100 Calm 29.96 1014 3 5 0.00 0.00
4:53 am 04:53 Partly Cloudy with Mist and Fog 51 10.6 50 10 96 96 Calm 29.94 1014 5 8 0.00 0.00
5:31 am 05:31 Mostly Clear with Mist and Fog 49 9.4 48 8.9 97 97 Calm 29.95 1014 2 3 0.00 0.00
5:40 am 05:40 Partly Cloudy with Fog 49 9.4 49 9.4 100 100 Calm 29.95 1014 1 1 0.00 0.00
5:48 am 05:48 Mostly Cloudy with Mist and Fog 50 10 48 9 94 94 Calm 29.95 1014 3 4 0.00 0.00
5:53 am 05:53 Mostly Cloudy with Mist and Fog 50 10 49 9.4 96 96 Calm 29.94 1014 6 10 0.00 0.00
6:22 am 06:22 Mostly Clear with Mist and Fog 50 10 49 9.4 96 96 Calm 29.95 1014 2 3 0.00 0.00
6:32 am 06:32 Clear with Mist and Fog 47 8.3 47 8.3 100 100 Calm 29.95 1014 1 1 0.00 0.00
6:41 am 06:41 Clear with Mist and Fog 49 9.4 48 8.9 97 97 Calm 29.94 1014 3 4 0.00 0.00
6:53 am 06:53 Mostly Clear 48 8.9 47 8.3 96 96 Calm 29.93 1014 10 16 0.00 0.00
7:53 am 07:53 Mostly Sunny 48 8.9 48 8.9 100 100 Calm 29.93 1014 10 16 0.00 0.00
8:53 am 08:53 Partly Cloudy 56 13.3 53 11.7 90 90 W 3 6 29.93 1013 10 16 0.00 0.00
9:53 am 09:53 Mostly Cloudy 62 16.7 56 13.3 80 80 Calm 29.91 1013 10 16 0.00 0.00
10:53 am 10:53 Cloudy 68 20 58 14.4 70 70 SSW 10 17 29.90 1013 10 16 0.00 0.00
11:53 am 11:53 Mostly Cloudy 73 22.8 59 15 62 62 W 12 19 29.89 1012 10 16 0.00 0.00
12:53 pm 12:53 Mostly Cloudy 75 23.9 61 16.1 62 62 SSW 13 20 29.85 1011 10 16 0.00 0.00
1:53 pm 13:53 Cloudy 76 24.4 59 15 56 56 WSW 16 26 29.83 1010 10 16 0.00 0.00
2:53 pm 14:53 Mostly Cloudy 77 25 61 16.1 58 58 SSW 12 19 29.80 1009 10 16 0.00 0.00
3:53 pm 15:53 Partly Cloudy 76 24.4 59 15 56 56 SSW 16 26 29.77 1008 10 16 0.00 0.00
4:53 pm 16:53 Partly Cloudy 77 25 59 15 54 54 SW 15 24 29.75 1007 10 16 0.00 0.00
5:53 pm 17:53 Mostly Cloudy 76 24.4 58 14.4 54 54 SSW 14 22 29.73 1007 10 16 0.00 0.00
6:53 pm 18:53 Mostly Cloudy 76 24.4 58 14.4 54 54 SSW 12 19 29.72 1006 10 16 0.00 0.00
7:53 pm 19:53 Mostly Sunny 73 22.8 57 13.9 57 57 SW 9 15 29.71 1006 10 16 0.00 0.00
8:53 pm 20:53 Mostly Clear 71 21.7 57 13.9 61 61 SW 12 19 29.71 1006 10 16 0.00 0.00
9:53 pm 21:53 Clear 70 21.1 58 14.4 66 66 SW 12 19 29.71 1006 10 16 0.00 0.00
10:53 pm 22:53 Clear 69 20.6 58 14.4 68 68 SW 10 17 29.69 1006 10 16 0.00 0.00
11:53 pm 23:53 Mostly Clear 68 20 59 15 73 73 SSW 13 20 29.67 1005 10 16 0.00 0.00

Powered by AerisWeather